Regional Weather Roundup
Issued by NWS

Home | Current Version | Previous Version | Text Only | Print | Product List | Glossary Off
Versions: 1 2 3 4 5 6 7 8 9 10 11 12 13 14 15 16 17 18 19 20 21 22 23 24 25 26 27 28

000
ASUS45 KSLC 231110
RWRUT

UTAH REGIONAL WEATHER ROUNDUP
NATIONAL WEATHER SERVICE SALT LAKE CITY UT
500 AM MDT TUE AUG 23 2016

UTZ001>011-023>025-231200-

NORTHERN UTAH

CITY           SKY/WX    TMP DP  RH WIND       PRES   REMARKS
BRIGHAM CITY     N/A     58  33  38 NW3       30.03R
HILL AFB       PTCLDY    65  38  38 S13       30.04S
LOGAN          PTCLDY    49  37  63 CALM      30.05R
OGDEN          PTCLDY    63  31  30 S7        30.02S
PROVO AIRPORT  MOCLDY    63  39  42 SE7       30.07R
SALT LAKE CITY PTCLDY    73  43  33 S13G22    30.01S
VERNAL         CLEAR     53  40  61 W5        30.10S
WENDOVER       MOCLDY    66  27  22 CALM      30.02S
HEBER CITY     MOCLDY    50  37  62 CALM      30.11R
WEST JORDAN    PTCLDY    68  45  43 S12       30.05S

$$

UTZ012>022-026-027-231200-

SOUTHERN/CENTRAL UTAH

CITY           SKY/WX    TMP DP  RH WIND       PRES   REMARKS
BLANDING       CLOUDY    61  47  58 E5        30.24S
BRYCE CANYON   CLOUDY    51  46  83 W3        30.27F
CEDAR CITY     CLOUDY    57  49  74 CALM      30.16S
DELTA          CLOUDY    63  41  45 SE6       30.08S
MILFORD        CLOUDY    62  52  69 S21       30.08F
MOAB/CYNLANDS  CLOUDY    64  55  72 NW6       30.08S
PRICE          PTCLDY    56  40  55 NE8       30.17S
ST GEORGE      PTSUNNY   68  55  64 SW16      30.06R

$$

REGIONAL REPORTS     COLORADO/ARIZONA

CITY           SKY/WX    TMP DP  RH WIND       PRES   REMARKS
CRAIG, CO      CLOUDY    45  40  82 CALM      30.18R
GRAND JUNCTION CLOUDY    62  47  57 E9        30.12R
RIFLE          CLOUDY    54  48  80 CALM      30.17S
MONTROSE       CLOUDY    52  44  74 S6        30.20S
CORTEZ         CLOUDY    54  49  83 CALM      30.18S
PAGE, AZ       CLOUDY    71  47  42 SW5       30.08S
GRAND CANYON   CLEAR     50  47  89 NE5       30.22F
KINGMAN        MOCLDY    61  58  90 CALM      30.06S
FLAGSTAFF      MOCLDY    52  48  86 CALM      30.28R

$$

REGIONAL REPORTS    NEVADA/IDAHO/WYOMING

CITY           SKY/WX    TMP DP  RH WIND       PRES   REMARKS
LAS VEGAS, NV  CLOUDY    73  59  61 VRB3      29.96F
ELY            MOCLDY    46  41  82 S7        30.21S
ELKO           MOCLDY    56  34  43 S3        30.09S
POCATELLO, ID  CLEAR     49  23  36 S3        30.05R
BURLEY         PTCLDY    48  34  58 S5        30.03R
EVANSTON, WY   CLOUDY    55  21  26 SW6       30.20R
ROCK SPRINGS   CLOUDY    55  14  19 SW10      30.15R

$$




USA.gov is the U.S. government's official web portal to all federal, state and local government web resources and services.